Tracking 19176 objects as of 26-May-2018
HD Live streaming from Space Station
objects crossing your sky now

FENGYUN 1C DEB

Track FENGYUN 1C DEB now!
10-day predictions


NORAD ID: 29933
Int'l Code: 1999-025JF
Perigee: 794.6 km
Apogee: 809.7 km
Inclination: 98.9 °
Period: 100.8 minutes
Semi major axis: 7173 km
RCS: 0.0177 m2 (small)
Launch date: May 10, 1999
Source: People's Republic of China (PRC)
Launch site: Taiyaun Space Center, China (TSC)

Note: This is SATELLITE DEBRIS
aabbcc
Your satellite tracking list
Your tracking list is empty




NASA's NSSDC Master Catalog

Two Line Element Set (TLE):
1 29933U 99025JF  18145.95479137  .00000977  00000-0  40389-3 0  9995
2 29933  98.8697 146.2782 0010496 202.9850 217.4149 14.29022828589032
Source of the keplerian elements: AFSPC